"Pseudo-MPEC" for CEJK2T2

Created 2026 Apr 16 23:35:11 UT using Find_Orb

Click here for an explanation of pseudo-MPECs

 
 Astrometry: 
     CEJK2T2*1C2026 04 16.43826316 41 36.200+05 20 37.97   ~4GB5 19.55GVNEOCPG96
     CEJK2T2 1C2026 04 16.44343416 41 50.676+05 19 22.40   ~4GB5       VNEOCPG96
     CEJK2T2 1C2026 04 16.44859316 42 05.108+05 18 07.56   ~4GB5x20.26GVNEOCPG96
     CEJK2T2  C2026 04 16.46153316 42 34.824+05 14 06.98   ~4GBo 20.1 GWNEOCPH01
     CEJK2T2  C2026 04 16.46215216 43 00.677+05 12 27.15   ~4GEK 19.72GVNEOCPU74
     CEJK2T2  C2026 04 16.46463216 42 43.539+05 13 21.67   ~4GBo 20.3 GWNEOCPH01
     CEJK2T2  C2026 04 16.46542616 43 09.912+05 11 37.86   ~4GEK 19.72GVNEOCPU74
     CEJK2T2  C2026 04 16.47616116 43 15.713+05 10 34.35   ~4GBo 19.9 GWNEOCPH01
     CEJK2T2  C2026 04 16.48267516 43 33.789+05 09 00.19   ~4GBo 19.8 GWNEOCPH01
     CEJK2T2 1C2026 04 16.48289016 43 40.580+05 09 47.92   ~4GBo 19.67GVNEOCPI52
     CEJK2T2 1C2026 04 16.48311516 43 41.207+05 09 44.46   ~4GBo 19.76GVNEOCPI52
     CEJK2T2 1C2026 04 16.48333116 43 41.790+05 09 41.00   ~4GBo 20.05GVNEOCPI52
     CEJK2T2 1C2026 04 16.48354716 43 42.366+05 09 38.09   ~4GBo 19.91GVNEOCPI52

Station data:
(G96) Mt. Lemmon Survey  (N32.442729 W110.788720)  US/Arizona.  Observer E.
   J. Christensen. Measurers T. Beuden, V. F. Carvajal, D. Fay, J. B.
   Fazekas, D. C. Fuls, A. R. Gibbs, A. D. Grauer, H. Gröller, J. K. Hogan,
   R. A. Kowalski, S. M. Larson, G. J. Leonard, D. Rankin, R. L. Seaman, F.
   C. Shelly, K. W. Wierzchoś. 1.5-m reflector + 10K CCD.
(H01) Magdalena Ridge Observatory, Socorro  (N33.984833 W107.189333)  US/New
   Mexico.  Observers W. H. Ryan, E. V. Ryan. Measurer W. H. Ryan. 2.4-m
   f/8.9 reflector + CCD.
(I52) Steward Observatory, Mt. Lemmon Station  (N32.442570 W110.788920)
   US/Arizona. Measurers T. Beuden, V. F. Carvajal, D. Fay, J. B. Fazekas, D.
   C. Fuls, A. R. Gibbs, A. D. Grauer, H. Gröller, J. K. Hogan, R. A.
   Kowalski, S. M. Larson, G. J. Leonard, D. Rankin, R. L. Seaman, F. C.
   Shelly, K. W. Wierzchoś. 1.0-m prime focus + CCD.
(U74) JPL SynTrack Robotic Telescope 2, Auberry  (N37.070341 W119.412800)
   US/California.  Observers N. Saini, C. Zhai, R. Trahan, M. Zhan, M. Shao.
   0.36-m f/2.2 Schmidt.

Orbital elements:  CEJK2T2
   Perigee 2026 Apr 14.843661 +/- 0.0712 TT = 20:14:52.3 (JD 2461145.343661)
Epoch 2026 Apr 16.0 TT = JDT 2461146.5                           AutoNEOCP
q293545.3217 +/- 16701              (J2000 equator)
H   30.14 G 0.15                    Peri.   94.869315 +/- 1.5
                                    Node    89.384376 +/- 0.050
e  12.66236644 +/- 0.794            Incl.   16.791325 +/- 0.040
12 of 13 observations 2026 Apr. 16 (65.2 min); mean residual 0".57
Residuals in arcseconds: 
260416 G96  1.1+  .30-    260416 H01  .48+  .05-    260416 I52  .12+  .04+    
260416 G96  1.6-  .28+    260416 U74  .63+  1.3-    260416 I52  .03-  .31-    
260416 G96( 3.4-  1.2+)   260416 H01  .14+  .16+    260416 I52  .29-  .11-    
260416 H01  .15+  .05+    260416 H01  .24-  .18+    
260416 U74  .40-  1.1+    260416 I52  .02-  .26+    

Ephemerides (geocentric):
Date (UTC) HH   RA             Dec           delta  r     elong  mag " sig PA
---- --------  ------------   ------------  ------ ------ -----  --- --------
2026 04 17 00  17 07 29.809   +03 43 54.81  819935 1.0069 126.2 20.8  351 104
2026 04 17 01  17 08 57.550   +03 37 26.07  833626 1.0070 125.9 20.8  394 104
2026 04 17 02  17 10 22.418   +03 31 09.34  847345 1.0070 125.6 20.9  438 104
2026 04 17 03  17 11 44.545   +03 25 04.10  861092 1.0071 125.4 20.9  484 104
2026 04 17 04  17 13 04.056   +03 19 09.86  874864 1.0071 125.1 21.0  529 104
2026 04 17 05  17 14 21.070   +03 13 26.18  888660 1.0072 124.9 21.0  576 104
2026 04 17 06  17 15 35.699   +03 07 52.60  902479 1.0072 124.6 21.1  622 105
2026 04 17 07  17 16 48.047   +03 02 28.71  916320 1.0073 124.4 21.1  670 105
2026 04 17 08  17 17 58.214   +02 57 14.12  930181 1.0073 124.2 21.1  717 105
2026 04 17 09  17 19 06.294   +02 52 08.45  944063 1.0073 123.9 21.2  764 105
2026 04 17 10  17 20 12.374   +02 47 11.33  957963 1.0074 123.7 21.2  812 105
2026 04 17 11  17 21 16.540   +02 42 22.44  971881 1.0074 123.5 21.3  860 105
2026 04 17 12  17 22 18.870   +02 37 41.45  985816 1.0075 123.3 21.3  907 105
2026 04 17 13  17 23 19.440   +02 33 08.05  999767 1.0075 123.1 21.3  954 105
2026 04 17 14  17 24 18.320   +02 28 41.95  .00678 1.0076 123.0 21.4 1002 105
2026 04 17 15  17 25 15.579   +02 24 22.86  .00687 1.0076 122.8 21.4 1049 105
2026 04 17 16  17 26 11.279   +02 20 10.53  .00696 1.0077 122.6 21.4 1096 105
2026 04 17 17  17 27 05.483   +02 16 04.70  .00706 1.0077 122.4 21.5 1142 105
2026 04 17 18  17 27 58.248   +02 12 05.14  .00715 1.0077 122.3 21.5 1188 105
2026 04 17 19  17 28 49.629   +02 08 11.60  .00724 1.0078 122.1 21.5 1234 105
2026 04 17 20  17 29 39.677   +02 04 23.87  .00734 1.0078 122.0 21.6 1280 105
2026 04 17 21  17 30 28.443   +02 00 41.75  .00743 1.0079 121.8 21.6 1325 105
2026 04 17 22  17 31 15.974   +01 57 05.03  .00753 1.0079 121.7 21.6 1370 105
2026 04 17 23  17 32 02.314   +01 53 33.52  .00762 1.0080 121.5 21.7 1414 105
2026 04 18 00  17 32 47.507   +01 50 07.03  .00771 1.0080 121.4 21.7 1458 105
2026 04 18 01  17 33 31.594   +01 46 45.41  .00781 1.0081 121.3 21.7 1502 105
2026 04 18 02  17 34 14.613   +01 43 28.47  .00790 1.0081 121.1 21.7 1545 105
2026 04 18 03  17 34 56.602   +01 40 16.06  .00800 1.0082 121.0 21.8 1588 106
2026 04 18 04  17 35 37.597   +01 37 08.02  .00809 1.0082 120.9 21.8 1630 106
2026 04 18 05  17 36 17.630   +01 34 04.22  .00819 1.0082 120.8 21.8 1672 106
2026 04 18 06  17 36 56.736   +01 31 04.51  .00828 1.0083 120.7 21.9 1713 106
2026 04 18 07  17 37 34.944   +01 28 08.76  .00838 1.0083 120.6 21.9 1754 106
2026 04 18 08  17 38 12.284   +01 25 16.83  .00847 1.0084 120.5 21.9 1795 106
2026 04 18 09  17 38 48.786   +01 22 28.61  .00857 1.0084 120.4 21.9 1835 106
2026 04 18 10  17 39 24.475   +01 19 43.98  .00866 1.0085 120.3 22.0 1874 106
2026 04 18 11  17 39 59.378   +01 17 02.82  .00875 1.0085 120.2 22.0 1913 106
2026 04 18 12  17 40 33.521   +01 14 25.03  .00885 1.0086 120.1 22.0 1952 106
2026 04 18 13  17 41 06.926   +01 11 50.50  .00894 1.0086 120.0 22.0 1990 106
2026 04 18 14  17 41 39.617   +01 09 19.13  .00904 1.0087 119.9 22.1 2028 106
2026 04 18 15  17 42 11.615   +01 06 50.83  .00913 1.0087 119.8 22.1 2065 106
2026 04 18 16  17 42 42.943   +01 04 25.50  .00923 1.0088 119.7 22.1 2102 106
2026 04 18 17  17 43 13.620   +01 02 03.06  .00932 1.0088 119.7 22.1 2138 106
2026 04 18 18  17 43 43.665   +00 59 43.42  .00942 1.0089 119.6 22.2 2174 106
2026 04 18 19  17 44 13.098   +00 57 26.49  .00951 1.0089 119.5 22.2 2210 106
2026 04 18 20  17 44 41.937   +00 55 12.20  .00961 1.0090 119.4 22.2 2245 106
2026 04 18 21  17 45 10.198   +00 53 00.47  .00970 1.0090 119.4 22.2 2279 106
2026 04 18 22  17 45 37.898   +00 50 51.24  .00980 1.0091 119.3 22.3 2313 106
2026 04 18 23  17 46 05.054   +00 48 44.41  .00989 1.0091 119.2 22.3 2347 106